Weather Roundup
Issued by NWS Chicago, IL

Home | Current Version | Previous Version | Graphics & Text | Print | Product List | Glossary On
Versions: 1 2 3 4 5 6 7 8 9 10 11 12 13 14 15 16 17 18 19 20 21 22 23 24 25 26 27 28 29 30 31 32 33 34 35 36 37 38 39 40 41 42 43 44 45 46 47 48 49 50
000
NZUS59 KLOT 252100
HRRLOT

CHICAGO AREA WEATHER ROUNDUP
NATIONAL WEATHER SERVICE CHICAGO/ROMEOVILLE IL
400 PM CDT MON MAY 25 2015

NOTE: "FAIR" INDICATES FEW OR NO CLOUDS BELOW 12,000 FEET WITH NO
SIGNIFICANT WEATHER AND/OR OBSTRUCTIONS TO VISIBILITY.

* THESE STATIONS ARE NOT UNDER NWS QUALITY CONTROL. THEY ALSO MAY NOT
  REPORT WEATHER SUCH AS PRECIPITATION OR FOG.

ILZ005-006-012>014-019>023-252200-
NORTHEAST ILLINOIS

CITY           SKY/WX    TMP DP  RH WIND       PRES   REMARKS
OHARE          PTSUNNY   77  61  57 SW12G26   29.91R
MIDWAY         PTSUNNY   79  62  56 SW15G26   29.92R HX  80
AURORA         PTSUNNY   79  61  53 SW18G28   29.92R HX  80
WAUKEGAN       NOT AVBL
DUPAGE AIRPORT PTSUNNY   77  62  59 SW16G26   29.92R
WHEELING       PTSUNNY   77  61  57 SW13G26   29.91R
NORTHERLY IS     N/A     77  58  51 SW13        N/A
$$

WIZ051-052-058>065-066-070>072-252200-
SOUTHEAST WISCONSIN

CITY           SKY/WX    TMP DP  RH WIND       PRES   REMARKS
MILWAUKEE      PTSUNNY   78  58  49 SW18G26   29.85S
KENOSHA*       MOSUNNY   78  62  57 SW17G29   29.87R HX  80
RACINE*        MOSUNNY   77  61  57 SW18G24   29.87R
WAUKESHA       PTSUNNY   75  61  60 SW16G23   29.85S
$$

INZ001>003-010>013-019-020-252200-
NORTHWEST INDIANA

CITY           SKY/WX    TMP DP  RH WIND       PRES   REMARKS
GARY*          PTSUNNY   81  59  47 SW17G32   29.94S HX  81
MICHIGAN CITY* NOT AVBL
RENSSELAER*    NOT AVBL
$$

LMZ740>746-252200-
SOUTHERN LAKE MICHIGAN

STATION/POSITION TIME  SKY/WX   TEMP WIND        PRES    VSBY
                                AIR  DIR/SP/G
                 (UTC)          (F)  (DEG/KT/KT) (MB)    (MI)
HARRISON CRIB    2000            74  220/ 18/ 23   N/A
BURNHAM HARBOR   2000            76  200/  5/ 19   N/A
CALUMET HARBOR   2006            75  210/ 10/ 19   N/A
BURNS HARBOR     2040            76  230/ 16     1013.9R
MICHIGAN CITY    2000            68  230/ 20/ 21   N/A
$$

ABBREVIATIONS USED IN REMARKS
   TC - TEMPERATURE IN CELSIUS
  WCI - WIND CHILL INDEX
   HX - HEAT INDEX
  VSB - VISIBILITY
$$


USA.gov is the U.S. government's official web portal to all federal, state and local government web resources and services.